カタログに戻る

STARLINK-32386

運用中通信VLEO
NORAD 61213·PAYLOAD·🇺🇸 United States

打ち上げ Sep 20, 2024 から Vandenberg Space Force Base

Loading…

次のパス (今後24時間)

TLE

最新Source: CelesTrak SupGP

元期: Sep 15, 2026, 03:09 UTC

1 61213C 24171P   26258.13173611  .00000331  00000+0  97706-5 0  2582
2 61213  53.1567 158.5187 0001236  90.4827 109.6061 15.34388360    14

AllMySatでSTARLINK-32386をリアルタイム追跡

Download on the App Store